N312CL KFXE-KJWN

Flight info

Callsign N312CL
Flight time N/A
Altitude 40000
Route FRSBE2 STYMY Q77 MJAMS/N0433F410 Q77 SHRKS/N0431F400 THRSR SWFFT BNA
Aircraft LJ35/M-SGHRWXY/SB1

Departure

Time N/A
Airport Fort Lauderdale Executive Airport (KFXE)

Arrival

Time 2026-04-21 17:15
Airport John C Tune Airport (KJWN)
Time Latitude Longitude Altitude Speed Heading
2026-04-21 16:50 34.93360 -85.42664 40357 ft 406 kts 322°
2026-04-21 16:50 34.95744 -85.44517 40354 ft 406 kts 322°
2026-04-21 16:51 35.00514 -85.48208 40352 ft 406 kts 322°
2026-04-21 16:51 35.05286 -85.51918 40353 ft 406 kts 322°
2026-04-21 16:52 35.10060 -85.55630 40256 ft 405 kts 322°
2026-04-21 16:52 35.12409 -85.57455 39675 ft 396 kts 322°
2026-04-21 16:52 35.14715 -85.59254 39056 ft 391 kts 322°
2026-04-21 16:52 35.16994 -85.61032 38334 ft 386 kts 323°
2026-04-21 16:53 35.19249 -85.62792 37591 ft 382 kts 322°
2026-04-21 16:53 35.21478 -85.64531 36899 ft 378 kts 322°
2026-04-21 16:53 35.23683 -85.66254 36246 ft 374 kts 322°
2026-04-21 16:53 35.25870 -85.67965 35612 ft 371 kts 322°
2026-04-21 16:54 35.28009 -85.69638 35008 ft 368 kts 322°
2026-04-21 16:54 35.30159 -85.71321 34412 ft 365 kts 323°
2026-04-21 16:54 35.32287 -85.72988 33760 ft 362 kts 323°
2026-04-21 16:54 35.34403 -85.74646 33118 ft 360 kts 323°
2026-04-21 16:55 35.36513 -85.76301 32512 ft 358 kts 323°
2026-04-21 16:55 35.38609 -85.77946 31907 ft 357 kts 323°
2026-04-21 16:55 35.40699 -85.79587 31321 ft 356 kts 323°
2026-04-21 16:55 35.42787 -85.81227 30766 ft 356 kts 323°
2026-04-21 16:56 35.44870 -85.82865 30204 ft 355 kts 323°
2026-04-21 16:56 35.46949 -85.84502 29593 ft 355 kts 323°
2026-04-21 16:56 35.49027 -85.86137 28992 ft 354 kts 323°
2026-04-21 16:56 35.51097 -85.87767 28401 ft 352 kts 323°
2026-04-21 16:57 35.53156 -85.89390 27841 ft 351 kts 323°
2026-04-21 16:57 35.55166 -85.91070 27285 ft 348 kts 318°
2026-04-21 16:57 35.56871 -85.93150 26748 ft 344 kts 310°
2026-04-21 16:57 35.58476 -85.95277 26240 ft 343 kts 311°
2026-04-21 16:58 35.60105 -85.97405 25740 ft 341 kts 311°
2026-04-21 16:58 35.61726 -85.99524 25258 ft 340 kts 311°
2026-04-21 16:58 35.63341 -86.01647 24788 ft 338 kts 311°
2026-04-21 16:58 35.64942 -86.03757 24331 ft 337 kts 311°
2026-04-21 16:59 35.66540 -86.05857 23878 ft 336 kts 311°
2026-04-21 16:59 35.68133 -86.07952 23354 ft 335 kts 311°
2026-04-21 16:59 35.69719 -86.10039 22848 ft 333 kts 311°
2026-04-21 16:59 35.71302 -86.12125 22361 ft 332 kts 311°
2026-04-21 17:00 35.72871 -86.14195 21878 ft 330 kts 311°
2026-04-21 17:00 35.74434 -86.16257 21410 ft 329 kts 311°
2026-04-21 17:00 35.75466 -86.17620 21109 ft 328 kts 311°
2026-04-21 17:00 35.77548 -86.20368 20498 ft 327 kts 311°
2026-04-21 17:01 35.79097 -86.22415 20049 ft 326 kts 311°
2026-04-21 17:01 35.80647 -86.24466 19620 ft 326 kts 311°
2026-04-21 17:01 35.82190 -86.26506 19190 ft 325 kts 310°
2026-04-21 17:01 35.83730 -86.28546 18779 ft 325 kts 310°
2026-04-21 17:02 35.85266 -86.30581 18342 ft 324 kts 310°
2026-04-21 17:02 35.86780 -86.32588 17844 ft 323 kts 310°
2026-04-21 17:02 35.88308 -86.34616 17404 ft 323 kts 310°
2026-04-21 17:02 35.89834 -86.36640 16967 ft 322 kts 310°
2026-04-21 17:03 35.91357 -86.38664 16535 ft 321 kts 310°
2026-04-21 17:03 35.92879 -86.40686 16117 ft 321 kts 310°
2026-04-21 17:03 35.94395 -86.42702 15706 ft 320 kts 310°
2026-04-21 17:03 35.95909 -86.44717 15326 ft 320 kts 310°
2026-04-21 17:04 35.97425 -86.46735 14932 ft 319 kts 310°
2026-04-21 17:04 35.98937 -86.48748 14543 ft 319 kts 310°
2026-04-21 17:04 36.00443 -86.50756 14168 ft 319 kts 310°
2026-04-21 17:04 36.01949 -86.52764 13761 ft 319 kts 310°
2026-04-21 17:05 36.03455 -86.54774 13340 ft 318 kts 310°
2026-04-21 17:05 36.04941 -86.56760 12937 ft 318 kts 310°
2026-04-21 17:05 36.06443 -86.58767 12530 ft 318 kts 310°
2026-04-21 17:05 36.07946 -86.60776 12077 ft 318 kts 310°
2026-04-21 17:06 36.09433 -86.62763 11487 ft 312 kts 310°
2026-04-21 17:06 36.10897 -86.64721 10899 ft 308 kts 310°
2026-04-21 17:06 36.12340 -86.66657 10341 ft 305 kts 310°
2026-04-21 17:06 36.13878 -86.68447 9746 ft 303 kts 321°
2026-04-21 17:07 36.15091 -86.69346 9335 ft 299 kts 330°
2026-04-21 17:07 36.17518 -86.70811 8575 ft 288 kts 330°
2026-04-21 17:07 36.19291 -86.71900 8026 ft 281 kts 329°
2026-04-21 17:07 36.21029 -86.72972 7485 ft 277 kts 329°
2026-04-21 17:08 36.22739 -86.74024 6944 ft 273 kts 329°
2026-04-21 17:08 36.24432 -86.75060 6384 ft 270 kts 329°
2026-04-21 17:08 36.26104 -86.76096 5851 ft 267 kts 328°
2026-04-21 17:08 36.27765 -86.77118 5312 ft 266 kts 329°
2026-04-21 17:09 36.31074 -86.79160 4247 ft 265 kts 329°
2026-04-21 17:09 36.32725 -86.80179 3724 ft 265 kts 331°
2026-04-21 17:09 36.34376 -86.81179 3197 ft 263 kts 330°
2026-04-21 17:10 36.35959 -86.82222 2977 ft 247 kts 322°
2026-04-21 17:10 36.37071 -86.83692 2969 ft 225 kts 300°
2026-04-21 17:10 36.37510 -86.85437 2963 ft 205 kts 267°
2026-04-21 17:10 36.37081 -86.87050 2970 ft 200 kts 236°
2026-04-21 17:11 36.36109 -86.88265 2964 ft 204 kts 214°
2026-04-21 17:11 36.34741 -86.88789 2967 ft 212 kts 185°
2026-04-21 17:11 36.33329 -86.88278 2962 ft 215 kts 150°
2026-04-21 17:11 36.32169 -86.87129 2970 ft 212 kts 145°
2026-04-21 17:12 36.30936 -86.86150 2965 ft 209 kts 154°
2026-04-21 17:12 36.29610 -86.85502 2965 ft 202 kts 170°
2026-04-21 17:12 36.28234 -86.85441 2968 ft 195 kts 191°
2026-04-21 17:12 36.26921 -86.85846 2880 ft 194 kts 196°
2026-04-21 17:13 36.25580 -86.86259 2393 ft 202 kts 197°
2026-04-21 17:13 36.24231 -86.86703 1929 ft 197 kts 196°
2026-04-21 17:13 36.22996 -86.87108 1505 ft 178 kts 196°
2026-04-21 17:13 36.21909 -86.87477 1194 ft 141 kts 197°
2026-04-21 17:14 36.21028 -86.87792 940 ft 126 kts 199°
2026-04-21 17:14 36.20169 -86.88038 795 ft 126 kts 201°
2026-04-21 17:14 36.19329 -86.88315 598 ft 125 kts 197°
2026-04-21 17:14 36.18512 -86.88583 495 ft 115 kts 192°
2026-04-21 17:15 36.17955 -86.88765 479 ft 50 kts 194°
2026-04-21 17:15 36.17650 -86.88863 473 ft 33 kts 194°
2026-04-21 17:15 36.17515 -86.88885 467 ft 15 kts 140°
2026-04-21 17:15 36.17482 -86.88751 469 ft 17 kts 103°
2026-04-21 17:16 36.17481 -86.88687 469 ft 0 kts 79°